Zurück zum Katalog

BRO-6

AktivWissenschaftSSO
NORAD 52422·PAYLOAD·🇫🇷 France

Gestartet May 2, 2022 von Rocket Lab Launch Complex 1

Loading…

Nächste Überflüge (nächste 24 Stunden)

TLE

AktuellSource: Space-Track

Epoche: Sep 14, 2026, 12:28 UTC

1 52422U 22047AE  26257.51976332  .00039531  00000-0  53674-3 0  9997
2 52422  97.3364 350.7153 0005266 102.4505 257.7340 15.57515449245026

Verfolge BRO-6 in Echtzeit mit AllMySat

Download on the App Store